User: anonymous   Login
Location: Montauk Point State Park
(41.0718°N, 71.8593°W)
Time: 21:16:28
(UTC-05:00)
Language:

Cosmos 1844 - Orbit

View from above orbital plane
View from above orbital plane
View from above satellite
View from above satellite

Ground track
Ground track

The orbit data is extracted from the following two-line orbital elements,

1 17973U 87041A   14352.50733659 -.00000162  00000-0 -59859-4 0  9081
2 17973 070.8996 034.8812 0029179 049.0387 050.8306 14.13962369424278
Epoch (UTC): 18 December 2014 12:10:33
Eccentricity: 0.0029179
inclination: 70.8996°
perigee height: 825 km
apogee height: 867 km
right ascension of ascending node: 34.8812°
argument of perigee: 49.0387°
revolutions per day: 14.13962369
mean anomaly at epoch: 50.8306°
orbit number at epoch: 42427

The dashed part of the orbit path shows where the satellite is in the earth's shadow,  

DLR